Location: Ferchesar
(52.6477°N, 12.4298°E)
Time: 12:02:23
(UTC+01:00)

Altair - Visible Passes

Search period start: 01 March 2021 00:00
Search period end: 11 March 2021 00:00
Orbit: 1501 x 1682 km, 47.2° (Epoch: 28 February)

Date Brightness Start Highest point End Pass type
(mag) Time Alt. Az. Time Alt. Az. Time Alt. Az.
01 Mar 8.2 18:44:55 10° SSW 18:52:35 31° SE 18:59:18 14° E visible
01 Mar 7.5 20:46:55 10° WSW 20:55:55 57° SSE 20:57:21 53° SE visible
01 Mar 8.5 22:50:45 10° W 22:55:23 33° WSW 22:55:23 33° WSW visible
02 Mar 8.3 18:20:06 10° SSW 18:27:33 29° SE 18:35:10 10° E visible
02 Mar 7.6 20:21:52 10° SW 20:30:48 55° SSE 20:33:46 42° ESE visible
02 Mar 8.0 22:25:38 10° W 22:31:48 45° WSW 22:31:48 45° WSW visible
03 Mar 7.6 19:56:49 10° SW 20:05:42 54° SSE 20:10:07 32° ESE visible
03 Mar 7.6 22:00:31 10° W 22:08:09 57° SW 22:08:09 57° SW visible
04 Mar 9.3 00:04:46 10° W 00:06:11 15° W 00:06:11 15° W visible
04 Mar 7.7 19:31:47 10° SW 19:40:35 52° SSE 19:46:26 24° E visible
04 Mar 7.4 21:35:24 10° W 21:44:28 64° S 21:44:28 64° S visible
04 Mar 8.9 23:39:37 10° W 23:42:29 22° W 23:42:29 22° W visible
05 Mar 7.8 19:06:45 10° SW 19:15:30 50° SSE 19:22:42 17° E visible
05 Mar 7.4 21:10:17 10° W 21:19:26 64° S 21:20:44 59° SE visible
05 Mar 8.6 23:14:29 10° W 23:18:45 29° W 23:18:45 29° W visible
06 Mar 7.8 18:41:45 10° SW 18:50:24 48° SSE 18:58:58 11° E visible
06 Mar 7.5 20:45:10 10° WSW 20:54:18 64° S 20:56:58 48° ESE visible
06 Mar 8.3 22:49:20 10° W 22:55:00 37° WSW 22:55:00 37° WSW visible
07 Mar 7.9 18:16:45 10° SW 18:25:19 46° SSE 18:34:07 10° E visible
07 Mar 7.5 20:20:04 10° WSW 20:29:09 64° S 20:33:12 37° ESE visible
07 Mar 7.9 22:24:12 10° W 22:31:12 46° SW 22:31:12 46° SW visible
08 Mar 9.5 00:29:03 10° W 00:29:14 11° W 00:29:14 11° W visible
08 Mar 7.5 19:54:57 10° WSW 20:04:01 64° S 20:09:24 28° ESE visible
08 Mar 7.7 21:59:04 10° W 22:07:25 53° SSW 22:07:25 53° SSW visible
09 Mar 9.2 00:03:48 10° W 00:05:26 15° W 00:05:26 15° W visible
09 Mar 7.6 19:29:51 10° WSW 19:38:54 63° S 19:45:35 21° E visible
09 Mar 7.6 21:33:56 10° W 21:42:56 56° SSW 21:43:36 55° S visible
09 Mar 9.0 23:38:35 10° W 23:41:37 20° W 23:41:37 20° W visible
10 Mar 7.6 19:04:46 10° WSW 19:13:46 62° S 19:21:47 15° E visible
10 Mar 7.6 21:08:48 10° W 21:17:49 57° SSW 21:19:48 49° SSE visible
10 Mar 8.7 23:13:23 10° W 23:17:49 25° WSW 23:17:49 25° WSW visible
